FW7302 Weather Reports


time (UTC)temp
F
wind
direction
speed
knots
gust
knots
rain 1hr
in
rain 24hr
in
rain mn
in
humidity
%
barometer
mb
20260509024306 58 312 0.0 0.0 0.00 0.00 0.00 94 1010.8
20260509023803 58 323 0.0 0.0 0.00 0.00 0.00 93 1010.4
20260509023301 58 323 0.0 0.0 0.00 0.00 0.00 93 1010.5
20260509022756 58 323 0.0 0.0 0.00 0.00 0.00 93 1010.4
20260509022255 58 324 0.0 0.0 0.00 0.00 0.00 93 1010.4
20260509021751 58 324 0.0 0.0 0.00 0.00 0.00 94 1010.5
20260509021249 58 326 0.0 0.0 0.00 0.00 0.00 93 1010.6
20260509020746 58 336 0.9 0.9 0.00 0.00 0.00 94 1010.5
20260509020244 59 314 0.0 0.0 0.00 0.00 0.00 94 1010.7
20260509015741 59 314 0.0 0.0 0.00 0.00 0.00 93 1010.7
20260509015239 59 315 0.0 0.0 0.00 0.00 0.00 93 1010.5
20260509014735 59 315 0.0 0.0 0.00 0.00 0.00 93 1010.7
20260509014233 59 315 0.0 0.0 0.00 0.00 0.00 92 1010.8
20260509013729 59 316 0.0 0.0 0.00 0.00 0.00 92 1010.5
20260509013224 59 316 0.0 0.0 0.00 0.00 0.00 92 1010.4
20260509012722 59 316 0.0 0.9 0.00 0.00 0.00 92 1010.3
20260509012218 59 305 0.0 0.0 0.00 0.00 0.00 92 1010.5
20260509011716 59 307 0.0 0.9 0.00 0.00 0.00 92 1010.3
20260509011214 59 317 0.0 0.0 0.00 0.00 0.00 91 1010.2
20260509010711 59 317 0.0 0.0 0.00 0.00 0.00 91 1010.0
20260509010207 59 324 0.0 0.0 0.00 0.00 0.00 90 1010.1
20260509005705 59 341 0.9 0.9 0.00 0.00 0.00 90 1010.0
20260509005201 59 317 0.0 0.0 0.00 0.00 0.00 90 1010.1
20260509004656 60 317 0.0 0.0 0.00 0.00 0.00 90 1010.3
20260509004154 60 324 0.0 0.0 0.00 0.00 0.00 89 1010.0
20260509003653 60 304 0.0 0.9 0.00 0.00 0.00 87 1010.1
20260509003150 61 304 0.0 0.0 0.00 0.00 0.00 85 1010.2
20260509002647 60 304 0.0 0.0 0.00 0.00 0.00 85 1010.1
20260509002144 61 300 0.0 0.0 0.00 0.00 0.00 85 1010.2
20260509001642 61 299 0.0 0.9 0.00 0.00 0.00 86 1010.2
20260509001137 62 302 0.9 0.9 0.00 0.00 0.00 86 1010.1
20260509000636 62 304 0.0 0.0 0.00 0.00 0.00 84 1010.0
20260509000132 62 304 0.0 0.0 0.00 0.00 0.00 83 1010.1
20260508235629 63 304 0.0 0.0 0.00 0.00 0.00 81 1010.0
20260508235126 63 303 0.0 0.0 0.00 0.00 0.00 81 1009.5
20260508234623 63 304 0.9 0.9 0.00 0.00 0.00 80 1009.6
20260508234120 64 305 0.0 0.9 0.00 0.00 0.00 79 1009.6
20260508233619 64 306 0.0 0.9 0.00 0.00 0.00 77 1010.0
20260508233116 65 306 0.0 0.9 0.00 0.00 0.00 76 1009.9
20260508232613 65 314 0.9 1.7 0.00 0.00 0.00 71 1009.9
20260508232109 65 307 1.7 1.7 0.00 0.00 0.00 70 1009.9
20260508231607 66 308 0.9 0.9 0.00 0.00 0.00 71 1010.0
20260508231104 66 298 0.9 0.9 0.00 0.00 0.00 70 1009.9
20260508230601 66 289 1.7 1.7 0.00 0.00 0.00 72 1010.1
20260508230057 66 280 1.7 1.7 0.00 0.00 0.00 69 1009.9
20260508225555 66 291 1.7 1.7 0.00 0.00 0.00 69 1009.8
20260508225051 66 288 0.9 0.9 0.00 0.00 0.00 68 1009.8
20260508224549 66 297 0.9 0.9 0.00 0.00 0.00 71 1009.9
20260508224046 67 287 0.9 0.9 0.00 0.00 0.00 67 1009.9
20260508223544 67 290 0.9 0.9 0.00 0.00 0.00 68 1010.1
20260508223041 67 303 0.9 0.9 0.00 0.00 0.00 67 1010.0
20260508222539 67 293 1.7 1.7 0.00 0.00 0.00 66 1009.9
20260508222035 67 297 1.7 1.7 0.00 0.00 0.00 65 1010.1
20260508221532 67 277 1.7 1.7 0.00 0.00 0.00 66 1009.8
20260508221027 67 305 1.7 1.7 0.00 0.00 0.00 63 1010.0
20260508220524 67 292 0.9 1.7 0.00 0.00 0.00 64 1009.9
20260508220021 67 285 0.9 0.9 0.00 0.00 0.00 64 1010.1
20260508215518 67 248 2.6 2.6 0.00 0.00 0.00 61 1010.0
20260508215014 67 283 1.7 1.7 0.00 0.00 0.00 62 1009.9
20260508214512 68 273 1.7 1.7 0.00 0.00 0.00 61 1009.9
20260508214008 68 251 3.5 3.5 0.00 0.00 0.00 58 1009.6
20260508213506 68 259 3.5 3.5 0.00 0.00 0.00 59 1009.9
20260508213001 68 295 1.7 2.6 0.00 0.00 0.00 60 1010.0
20260508212458 68 298 1.7 1.7 0.00 0.00 0.00 58 1009.8
20260508211954 68 315 1.7 2.6 0.00 0.00 0.00 59 1010.0
20260508211449 68 305 5.2 6.1 0.00 0.00 0.00 58 1010.0
20260508210946 68 284 3.5 5.2 0.00 0.00 0.00 57 1009.9
20260508210443 68 285 2.6 2.6 0.00 0.00 0.00 58 1010.0
20260508205939 69 322 3.5 3.5 0.00 0.00 0.00 56 1010.0
20260508205437 69 307 1.7 2.6 0.00 0.00 0.00 59 1010.1
20260508204933 68 266 1.7 1.7 0.00 0.00 0.00 56 1010.1
20260508204430 68 257 4.3 5.2 0.00 0.00 0.00 55 1010.1
20260508203925 69 233 4.3 5.2 0.00 0.00 0.00 56 1010.1
20260508203422 69 306 1.7 2.6 0.00 0.00 0.00 56 1010.2
20260508202918 69 286 4.3 5.2 0.00 0.00 0.00 57 1010.4
20260508202415 69 281 3.5 3.5 0.00 0.00 0.00 55 1010.0
20260508201912 69 286 0.9 1.7 0.00 0.00 0.00 56 1010.3
20260508201409 69 261 3.5 3.5 0.00 0.00 0.00 55 1010.5
20260508200906 69 298 3.5 3.5 0.00 0.00 0.00 52 1010.6
20260508200403 70 289 5.2 7.0 0.00 0.00 0.00 52 1010.5
20260508195858 70 329 5.2 7.0 0.00 0.00 0.00 52 1010.4
20260508195355 70 299 0.9 0.9 0.00 0.00 0.00 52 1010.7
20260508194851 69 298 3.5 5.2 0.00 0.00 0.00 53 1010.8
20260508194348 70 269 3.5 7.0 0.00 0.00 0.00 58 1010.8
20260508193845 70 317 1.7 2.6 0.00 0.00 0.00 54 1010.7
20260508193342 69 313 0.9 1.7 0.00 0.00 0.00 54 1010.9
20260508192838 69 270 1.7 1.7 0.00 0.00 0.00 53 1011.1
20260508192336 69 291 2.6 3.5 0.00 0.00 0.00 54 1011.1
20260508191833 70 328 7.8 8.7 0.00 0.00 0.00 52 1011.3
20260508191330 69 318 1.7 2.6 0.00 0.00 0.00 55 1011.2
20260508190827 69 298 0.9 0.9 0.00 0.00 0.00 54 1011.3
20260508190323 68 250 1.7 2.6 0.00 0.00 0.00 55 1011.2
20260508185820 68 350 0.9 1.7 0.00 0.00 0.00 56 1011.2
20260508185317 68 304 2.6 3.5 0.00 0.00 0.00 56 1011.1
20260508184814 69 273 2.6 2.6 0.00 0.00 0.00 52 1011.5
20260508184311 69 301 3.5 3.5 0.00 0.00 0.00 53 1011.5
20260508183808 69 255 4.3 5.2 0.00 0.00 0.00 52 1011.8
20260508183305 69 346 1.7 1.7 0.00 0.00 0.00 55 1011.7
20260508182800 70 300 6.1 7.8 0.00 0.00 0.00 57 1011.8
20260508182257 71 300 1.7 1.7 0.00 0.00 0.00 52 1011.9
20260508181753 70 222 6.1 7.8 0.00 0.00 0.00 55 1012.0
20260508181250 69 344 0.9 1.7 0.00 0.00 0.00 51 1011.7
20260508180747 69 244 2.6 3.5 0.00 0.00 0.00 54 1011.8
20260508180244 68 243 3.5 3.5 0.00 0.00 0.00 55 1012.1
20260508175740 68 271 3.5 3.5 0.00 0.00 0.00 58 1012.1
20260508175237 67 266 2.6 2.6 0.00 0.00 0.00 57 1012.4
20260508174735 67 268 4.3 6.1 0.00 0.00 0.00 56 1012.3
20260508174232 67 239 2.6 3.5 0.00 0.00 0.00 55 1012.3
20260508173728 67 249 2.6 2.6 0.00 0.00 0.00 60 1012.4
20260508173225 67 274 2.6 2.6 0.00 0.00 0.00 59 1012.3
20260508172721 67 274 0.9 0.9 0.00 0.00 0.00 61 1012.4
20260508172218 68 299 0.9 0.9 0.00 0.00 0.00 58 1012.3
20260508171715 68 284 0.9 1.7 0.00 0.00 0.00 58 1012.4
20260508171211 67 288 0.9 0.9 0.00 0.00 0.00 59 1012.4
20260508170708 68 253 3.5 5.2 0.00 0.00 0.00 55 1012.6
20260508170206 68 236 3.5 3.5 0.00 0.00 0.00 61 1012.8
20260508165703 68 227 3.5 5.2 0.00 0.00 0.00 58 1013.1
20260508165200 68 204 1.7 3.5 0.00 0.00 0.00 62 1013.0
20260508164656 67 224 4.3 7.0 0.00 0.00 0.00 62 1012.9
20260508164153 67 316 1.7 2.6 0.00 0.00 0.00 65 1013.2
20260508163651 66 232 3.5 3.5 0.00 0.00 0.00 63 1012.9
20260508163148 66 311 4.3 5.2 0.00 0.00 0.00 66 1013.4
20260508162643 66 224 4.3 6.1 0.00 0.00 0.00 64 1013.4
20260508162141 66 257 3.5 3.5 0.00 0.00 0.00 62 1013.3
20260508161637 65 232 5.2 7.0 0.00 0.00 0.00 62 1013.3
20260508161135 66 294 6.1 7.0 0.00 0.00 0.00 65 1013.3
20260508160633 65 240 3.5 5.2 0.00 0.00 0.00 64 1013.4
20260508160130 64 294 1.7 1.7 0.00 0.00 0.00 65 1013.5
20260508155622 63 221 4.3 5.2 0.00 0.00 0.00 66 1013.6
20260508155119 64 287 4.3 5.2 0.00 0.00 0.00 64 1013.6
20260508154615 65 256 7.0 8.7 0.00 0.00 0.00 64 1013.8
20260508154112 65 278 1.7 2.6 0.00 0.00 0.00 66 1014.1
20260508153609 65 245 3.5 5.2 0.00 0.00 0.00 63 1014.0
20260508153106 64 221 2.6 2.6 0.00 0.00 0.00 63 1014.1
20260508152603 66 261 1.7 2.6 0.00 0.00 0.00 64 1014.1
20260508152058 66 86 1.7 1.7 0.00 0.00 0.00 65 1014.1
20260508151555 65 205 3.5 3.5 0.00 0.00 0.00 61 1014.0
20260508151052 66 250 3.5 3.5 0.00 0.00 0.00 63 1014.1
20260508150549 65 191 0.9 1.7 0.00 0.00 0.00 68 1013.8
20260508150044 64 181 2.6 3.5 0.00 0.00 0.00 66 1013.7
20260508145536 65 284 3.5 3.5 0.00 0.00 0.00 65 1013.8
20260508145032 64 326 0.9 0.9 0.00 0.00 0.00 70 1013.5
20260508144530 64 246 3.5 5.2 0.00 0.00 0.00 67 1013.7
20260508144027 64 331 2.6 5.2 0.00 0.00 0.00 67 1013.4
20260508143525 64 219 1.7 2.6 0.00 0.00 0.00 66 1013.6
20260508143021 64 357 0.9 2.6 0.00 0.00 0.00 71 1013.8
20260508142518 64 287 0.9 1.7 0.00 0.00 0.00 68 1014.1
20260508142015 64 277 1.7 1.7 0.00 0.00 0.00 67 1014.1
20260508141511 63 251 3.5 3.5 0.00 0.00 0.00 71 1014.1
20260508141009 62 186 0.9 2.6 0.00 0.00 0.00 75 1014.2
20260508140506 62 225 3.5 3.5 0.00 0.00 0.00 69 1014.1
20260508140002 62 301 0.9 0.9 0.00 0.00 0.00 73 1014.2
20260508135458 62 294 1.7 1.7 0.00 0.00 0.00 73 1014.3
20260508134954 62 325 0.9 0.9 0.00 0.00 0.00 74 1014.1
20260508134451 62 289 2.6 3.5 0.00 0.00 0.00 74 1014.2
20260508133948 61 29 1.7 2.6 0.00 0.00 0.00 75 1014.3
20260508133445 61 292 0.0 0.9 0.00 0.00 0.00 77 1014.3
20260508132942 61 21 1.7 2.6 0.00 0.00 0.00 77 1014.3
20260508132440 61 251 0.9 3.5 0.00 0.00 0.00 78 1014.2
20260508131937 60 270 0.9 0.9 0.00 0.00 0.00 79 1014.1
20260508131432 60 316 1.7 1.7 0.00 0.00 0.00 79 1014.1
20260508130929 59 344 0.9 0.9 0.00 0.00 0.00 78 1014.0
20260508130426 59 43 2.6 2.6 0.00 0.00 0.00 78 1013.8
20260508125922 59 248 2.6 2.6 0.00 0.00 0.00 78 1013.6
20260508125418 59 19 0.9 1.7 0.00 0.00 0.00 80 1013.7
20260508124916 58 112 1.7 1.7 0.00 0.00 0.00 79 1013.4
20260508124413 58 95 1.7 1.7 0.00 0.00 0.00 80 1013.4
20260508123911 58 115 1.7 2.6 0.00 0.00 0.00 80 1013.5
20260508123410 58 114 2.6 3.5 0.00 0.00 0.00 79 1013.2
20260508122905 57 61 1.7 1.7 0.00 0.00 0.00 82 1013.4
20260508122403 56 339 0.9 1.7 0.00 0.00 0.00 84 1013.3
20260508121900 56 14 0.9 1.7 0.00 0.00 0.00 85 1013.2
20260508121358 55 323 0.0 0.0 0.00 0.00 0.00 88 1013.3
20260508120855 55 330 0.9 0.9 0.00 0.00 0.00 88 1013.2
20260508120353 54 331 0.0 0.0 0.00 0.00 0.00 90 1013.0
20260508115850 54 337 0.0 0.9 0.00 0.00 0.00 90 1013.0
20260508115348 53 317 0.0 0.0 0.00 0.00 0.00 91 1012.9
20260508114844 53 330 0.0 0.0 0.00 0.00 0.00 92 1013.1
20260508114341 53 330 0.0 0.0 0.00 0.00 0.00 92 1012.9
20260508113837 53 332 0.0 0.0 0.00 0.00 0.00 91 1012.8
20260508113336 52 331 0.0 0.0 0.00 0.00 0.00 91 1012.6
20260508112831 51 337 0.0 0.9 0.00 0.00 0.00 92 1012.5
20260508112323 51 341 0.0 0.9 0.00 0.00 0.00 93 1012.3
20260508111819 51 17 0.9 0.9 0.00 0.00 0.00 94 1012.0
20260508111317 51 18 0.9 0.9 0.00 0.00 0.00 94 1012.2
20260508110814 51 330 0.0 0.0 0.00 0.00 0.00 93 1012.0
20260508110312 51 332 0.0 0.9 0.00 0.00 0.00 92 1011.9
20260508105811 51 336 0.0 0.9 0.00 0.00 0.00 92 1012.0
20260508105308 51 326 0.0 0.0 0.00 0.00 0.00 91 1011.7
20260508104805 51 343 0.0 0.9 0.00 0.00 0.00 89 1011.7
20260508104302 51 318 0.0 0.0 0.00 0.00 0.00 92 1011.7
20260508103759 51 317 0.0 0.0 0.00 0.00 0.00 92 1011.7
20260508103256 51 331 0.0 0.0 0.00 0.00 0.00 90 1011.7
20260508102754 51 334 0.0 0.0 0.00 0.00 0.00 91 1011.6
20260508102252 51 331 0.0 0.0 0.00 0.00 0.00 91 1011.5
20260508101749 52 331 0.0 0.0 0.00 0.00 0.00 89 1011.5
20260508101246 52 10 0.9 0.9 0.00 0.00 0.00 88 1011.3
20260508100744 52 340 0.0 0.0 0.00 0.00 0.00 88 1011.2
20260508100241 52 336 0.0 0.9 0.00 0.00 0.00 88 1011.1
20260508095737 52 332 0.0 0.0 0.00 0.00 0.00 88 1011.0
20260508095235 52 350 0.9 0.9 0.00 0.00 0.00 88 1011.0
20260508094732 52 329 0.0 0.0 0.00 0.00 0.00 88 1010.9
20260508094229 52 329 0.0 0.0 0.00 0.00 0.00 87 1010.8
20260508093726 52 329 0.0 0.0 0.00 0.00 0.00 87 1011.4
20260508093224 52 318 0.0 0.0 0.00 0.00 0.00 88 1010.8
20260508092720 51 331 0.0 0.0 0.00 0.00 0.00 90 1010.9
20260508092219 51 330 0.0 0.0 0.00 0.00 0.00 90 1010.8
20260508091716 51 337 0.0 0.9 0.00 0.00 0.00 91 1010.8
20260508091213 51 329 0.0 0.0 0.00 0.00 0.00 92 1010.9
20260508090711 51 329 0.0 0.0 0.00 0.00 0.00 92 1010.6
20260508090208 50 335 0.9 0.9 0.00 0.00 0.00 94 1010.8
20260508085703 50 334 0.0 0.0 0.00 0.00 0.00 94 1010.4
20260508085201 50 335 0.0 0.0 0.00 0.00 0.00 94 1010.6
20260508084657 50 340 0.9 0.9 0.00 0.00 0.00 94 1010.6
20260508084155 50 314 0.0 0.0 0.00 0.00 0.00 93 1010.4
20260508083652 51 314 0.0 0.0 0.00 0.00 0.00 92 1010.6
20260508083150 51 337 0.0 0.0 0.00 0.00 0.00 92 1010.6
20260508082644 50 336 0.0 0.0 0.00 0.00 0.00 93 1010.5
20260508082141 50 337 0.0 0.9 0.00 0.00 0.00 94 1010.8
20260508081634 50 337 0.0 0.9 0.00 0.00 0.00 95 1010.4
20260508081130 50 336 0.0 0.0 0.00 0.00 0.00 94 1010.5
20260508080627 51 336 0.0 0.0 0.00 0.00 0.00 94 1010.3
20260508080125 51 341 0.0 0.9 0.00 0.00 0.00 93 1010.4
20260508075621 51 336 0.0 0.0 0.00 0.00 0.00 91 1010.4
20260508075118 52 336 0.0 0.0 0.00 0.00 0.00 90 1010.6
20260508074616 52 335 0.0 0.9 0.00 0.00 0.00 89 1010.3
20260508074113 52 335 0.0 0.0 0.00 0.00 0.00 89 1010.4
20260508073610 52 331 0.0 0.0 0.00 0.00 0.00 89 1010.7
20260508073108 52 331 0.0 0.0 0.00 0.00 0.00 87 1010.5
20260508072603 52 331 0.0 0.0 0.00 0.00 0.00 87 1010.5
20260508072101 52 331 0.0 0.0 0.00 0.00 0.00 86 1010.4
20260508071559 52 330 0.0 0.0 0.00 0.00 0.00 86 1010.4
20260508071057 53 330 0.0 0.0 0.00 0.00 0.00 86 1010.5
20260508070554 53 330 0.0 0.0 0.00 0.00 0.00 86 1010.4
20260508070052 53 331 0.0 0.0 0.00 0.00 0.00 86 1010.2
20260508065549 53 334 0.0 0.0 0.00 0.00 0.00 87 1010.3
20260508065047 53 334 0.9 0.9 0.00 0.00 0.00 87 1010.0
20260508064544 52 344 0.0 0.9 0.00 0.00 0.00 89 1010.2
20260508064042 52 335 0.9 0.9 0.00 0.00 0.00 90 1009.9
20260508063539 52 332 0.0 0.0 0.00 0.00 0.00 90 1009.9
20260508063037 52 339 0.9 0.9 0.00 0.00 0.00 90 1009.8
20260508062534 52 329 0.0 0.0 0.00 0.00 0.00 90 1009.9
20260508062031 52 329 0.0 0.0 0.00 0.00 0.00 90 1010.1
20260508061529 52 329 0.0 0.0 0.00 0.00 0.00 90 1010.1
20260508061025 53 333 0.0 0.0 0.00 0.00 0.00 91 1010.1
20260508060522 53 332 0.0 0.0 0.00 0.00 0.00 89 1010.2
20260508060020 53 332 0.0 0.0 0.00 0.00 0.00 89 1010.3
20260508055515 53 332 0.0 0.0 0.00 0.00 0.00 89 1010.4
20260508055012 53 332 0.0 0.0 0.00 0.00 0.00 89 1010.4
20260508054509 53 332 0.0 0.0 0.00 0.00 0.00 89 1010.4
20260508054006 53 332 0.0 0.0 0.00 0.00 0.00 89 1010.3
20260508053502 54 332 0.0 0.0 0.00 0.00 0.00 87 1010.2
20260508053001 54 333 0.0 0.0 0.00 0.00 0.00 87 1010.3
20260508052458 53 331 0.0 0.0 0.00 0.00 0.00 89 1010.4
20260508051954 53 330 0.0 0.0 0.00 0.00 0.00 90 1010.3
20260508051450 54 330 0.0 0.0 0.00 0.00 0.00 90 1010.0
20260508050946 54 330 0.0 0.0 0.00 0.00 0.00 89 1010.0
20260508050443 55 330 0.0 0.0 0.00 0.00 0.00 88 1010.3
20260508045939 55 331 0.0 0.0 0.00 0.00 0.00 87 1010.3
20260508045436 55 330 0.0 0.0 0.00 0.00 0.00 86 1010.2
20260508044933 55 330 0.0 0.0 0.00 0.00 0.00 87 1010.0
20260508044431 55 330 0.0 0.0 0.00 0.00 0.00 87 1010.1
20260508043926 55 330 0.0 0.0 0.00 0.00 0.00 87 1010.1
20260508043424 56 330 0.0 0.0 0.00 0.00 0.00 86 1009.8
20260508042920 56 330 0.0 0.0 0.00 0.00 0.00 86 1010.0
20260508042418 57 331 0.0 0.0 0.00 0.00 0.00 85 1010.1
20260508041914 57 337 0.0 0.0 0.00 0.00 0.00 85 1009.9
20260508041411 57 341 0.0 0.0 0.00 0.00 0.00 85 1009.8
20260508040907 57 349 0.0 0.9 0.00 0.00 0.00 86 1009.6
20260508040405 56 356 0.9 0.9 0.00 0.00 0.00 87 1009.8
20260508035902 56 355 0.0 0.0 0.00 1.73 1.73 87 1010.0
20260508035354 57 356 0.9 0.9 0.00 1.73 1.73 86 1009.8
20260508034850 57 355 0.9 0.9 0.00 1.73 1.73 86 1009.6
20260508034348 57 356 0.9 0.9 0.00 1.73 1.73 86 1009.8
20260508033845 57 359 0.0 0.0 0.00 1.73 1.73 87 1009.9
20260508033343 58 359 0.0 0.0 0.00 1.73 1.73 86 1009.8
20260508032840 57 359 0.0 0.9 0.00 1.73 1.73 86 1010.1
20260508032337 57 359 0.0 0.0 0.00 1.73 1.73 87 1009.9
20260508031834 58 359 0.0 0.9 0.00 1.73 1.73 86 1009.8
20260508031331 58 359 0.0 0.0 0.00 1.73 1.73 86 1009.4
20260508030827 58 359 0.0 0.0 0.00 1.73 1.73 85 1009.6
20260508030324 59 359 0.0 0.0 0.00 1.73 1.73 83 1009.6
20260508025821 60 359 0.0 0.0 0.00 1.73 1.73 81 1009.5
20260508025318 60 359 0.0 0.0 0.00 1.73 1.73 81 1009.3
20260508024815 60 0 0.9 1.7 0.00 1.73 1.73 81 1009.2
20260508024311 60 14 1.7 1.7 0.00 1.73 1.73 79 1009.2